Location: Croisilles
(50.1998°N, 2.8793°E)
Time: 21:12:27
(UTC+00:00)

Cosmos 1892 Rocket - Pass Details

Date: 21 January 2021
Orbit: 607 x 632 km, 82.5° (Epoch: 02 March)

Event Time Altitude Azimuth Distance (km) Brightness Sun altitude
Rises 17:11:15 0° 165° (SSE) 2,862 7.1 -7.6°
Reaches altitude 10° 17:13:35 10° 157° (SSE) 1,960 6.1 -8.0°
Maximum altitude 17:17:32 35° 91° (E) 987 4.1 -8.5°
Drops below altitude 10° 17:21:30 10° 26° (NNE) 1,970 5.7 -9.1°
Sets 17:23:51 0° 18° (NNE) 2,879 6.6 -9.5°
